Location: Morlupo
(42.1333°N, 12.5000°E)
Time: 15:52:52
(UTC+00:00)

Cosmos 2026 Rocket - Pass Details

Date: 18 September 2020
Orbit: 940 x 1000 km, 82.9° (Epoch: 25 October)

Event Time Altitude Azimuth Distance (km) Brightness Sun altitude
Rises 19:57:51 0° 350° (N) 3,717 7.6 -29.6°
Reaches altitude 10° 20:00:22 10° 350° (N) 2,769 6.9 -30.0°
Maximum altitude 20:06:44 78° 266° (W) 1,025 4.0 -30.9°
Enters shadow 20:06:54 78° 247° (WSW) 1,027 4.0 -30.9°
